This demonstration page uses our WeatherBlox Daily Observations layout. Learn more.

Left ArrowRight Arrow

Hourly Observations for January 7, 2017

Temp ( °F °C ) Dew Point ( °F °C ) Humidity (%) Winds ( mph kmh ) Pressure ( in mb ) Visibility ( mi km ) Precip ( " mm )
12:38 am 00:38 Cloudy with Light Snow 31 -0.6 27 -2.8 85 85 NNE 16 26 30.27 1025 2 3 0.02 0.51
12:59 am 00:59 Cloudy with Light Snow 31 -0.6 27 -2.8 85 85 NNE 14 22 30.24 1024 1 2 0.04 1.02
1:57 am 01:57 Cloudy with Mist and Fog 30 -1 27 -3 86 86 NNE 20 31 30.21 1023 2 3 0.04 1.02
1:59 am 01:59 Cloudy with Mist and Fog 30 -1.1 27 -2.8 88 88 NNE 18 30 30.21 1023 3 5 0.05 1.27
2:11 am 02:11 Cloudy with Mist and Fog 31 -0.6 27 -2.8 85 85 NNE 20 31 30.21 1023 2 3 0.01 0.25
2:21 am 02:21 Cloudy with Mist and Fog 31 -0.6 27 -2.8 85 85 NNE 18 30 30.21 1023 3 5 0.02 0.51
2:53 am 02:53 Cloudy 30 -1 25 -4 80 80 NNE 21 33 30.21 1023 1 2 0.06 1.52
2:59 am 02:59 Cloudy 30 -1.1 25 -3.9 82 82 NNE 18 30 30.21 1023 2 2 0.07 1.78
3:30 am 03:30 Cloudy with Mist and Fog 30 -1.1 27 -2.8 88 88 NNE 20 31 30.18 1022 1 2 0.06 1.52
3:53 am 03:53 Cloudy 30 -1 27 -3 86 86 NE 17 28 30.18 1022 0 0 0.11 2.79
3:59 am 03:59 Cloudy with Fog 30 -1.1 27 -2.8 88 88 NE 17 28 30.16 1021 0 0 0.12 3.05
4:04 am 04:04 Cloudy with Fog 30 -1.1 27 -2.8 88 88 NE 20 31 30.15 1021 1 1 0.01 0.25
4:10 am 04:10 Cloudy with Fog 30 -1.1 27 -2.8 88 88 NE 22 35 30.15 1021 1 1 0.02 0.51
4:12 am 04:12 Cloudy with Mist and Fog 30 -1.1 27 -2.8 88 88 NE 20 31 30.15 1021 1 2 0.02 0.51
4:27 am 04:27 Cloudy with Mist and Fog 30 -1.1 27 -2.8 88 88 NE 24 39 30.18 1022 2 3 0.05 1.27
4:33 am 04:33 Cloudy with Mist and Fog 30 -1.1 27 -2.8 88 88 NE 17 28 30.18 1022 2 3 0.06 1.52
4:44 am 04:44 Cloudy with Mist and Fog 30 -1.1 27 -2.8 88 88 NE 24 39 30.15 1021 2 2 0.07 1.78
4:59 am 04:59 Cloudy with Mist and Fog 30 -1.1 27 -2.8 88 88 NE 21 33 30.15 1021 1 2 0.13 3.30
5:13 am 05:13 Cloudy with Mist and Fog 30 -1.1 27 -2.8 88 88 NE 21 33 30.15 1021 3 4 0.01 0.25
5:33 am 05:33 Cloudy with Mist and Fog 30 -1.1 26 -3.3 85 85 NE 17 28 30.15 1021 2 3 0.03 0.76
5:53 am 05:53 Cloudy with Mist and Fog 28 -2 27 -3 93 93 NE 22 35 30.15 1021 1 2 0.06 1.52
5:59 am 05:59 Cloudy with Mist and Fog 29 -1.7 26 -3.3 89 89 NE 23 37 30.14 1021 1 2 0.07 1.78
6:02 am 06:02 Cloudy with Mist and Fog 29 -1.7 26 -3.3 89 89 NE 25 41 30.15 1021 1 1 0.00 0.00
6:13 am 06:13 Cloudy with Mist and Fog 29 -1.7 26 -3.3 89 89 NE 24 39 30.12 1020 1 2 0.02 0.51
6:40 am 06:40 Cloudy with Freezing Fog 29 -1.7 26 -3.3 89 89 NNE 20 31 30.18 1022 1 1 0.06 1.52
6:59 am 06:59 Cloudy with Mist and Fog 29 -1.7 26 -3.3 89 89 NNE 23 37 30.17 1022 1 1 0.00 0.00
7:35 am 07:35 Mostly Cloudy with Mist and Fog 29 -1.7 26 -3.3 89 89 NNE 24 39 30.15 1021 1 1 0.04 1.02
7:45 am 07:45 Cloudy with Freezing Fog 29 -1.7 26 -3.3 89 89 NNE 24 39 30.15 1021 0 0 0.05 1.27
7:59 am 07:59 Cloudy with Heavy Snow 29 -1.7 26 -3.3 89 89 N 24 39 30.16 1021 0 0 0.07 1.78
8:59 am 08:59 Mostly Cloudy with Heavy Snow 29 -1.7 26 -3.3 89 89 NNE 25 41 30.16 1021 0 0 0.06 1.52
9:59 am 09:59 Cloudy with Heavy Snow 29 -1.7 26 -3.3 89 89 N 25 41 30.13 1020 0 0 0.05 1.27
10:59 am 10:59 Windy with Snow Likely 29 -1.7 25 -3.9 85 85 N 25 41 30.12 1020 0 0 0.04 1.02
11:52 am 11:52 Windy with Snow Likely 28 -2.2 25 -3.9 88 88 N 22 35 30.09 1019 1 1 0.02 0.51
11:59 am 11:59 Windy with Snow Likely 28 -2.2 25 -3.9 88 88 N 24 39 30.08 1019 1 1 0.02 0.51
12:59 pm 12:59 Windy with Snow Likely 28 -2.2 24 -4.4 85 85 N 21 33 30.07 1018 1 1 0.01 0.25
1:15 pm 13:15 Windy with Snow Likely 27 -2.8 23 -5 85 85 NNW 30 48 30.09 1019 1 1 0.01 0.25
1:56 pm 13:56 Windy with Snow Likely 27 -3 21 -6 80 80 NNW 29 46 30.09 1019 0 0 0.01 0.25
1:59 pm 13:59 Windy with Snow Likely 26 -3.3 22 -5.6 84 84 NNW 26 43 30.08 1019 0 0 0.01 0.25
2:32 pm 14:32 Windy with Snow Likely 26 -3.3 22 -5.6 84 84 NNW 25 41 30.09 1019 1 1 0.00 0.00
2:45 pm 14:45 Windy with Snow Likely 26 -3.3 22 -5.6 84 84 NNW 26 43 30.12 1020 1 1 0.00 0.00
2:54 pm 14:54 Windy with Snow Likely 27 -3 21 -6 80 80 NNW 25 41 30.12 1020 1 1 0.00 0.00
2:59 pm 14:59 Windy with Snow Likely 26 -3.3 22 -5.6 84 84 NNW 24 39 30.11 1020 1 1 0.00 0.00
3:41 pm 15:41 Windy with Snow Likely 25 -3.9 21 -6.1 85 85 NNW 26 43 30.15 1021 1 2 0.00 0.00
3:57 pm 15:57 Windy with Snow Likely 25 -4 19 -7 80 80 NNW 26 43 30.15 1021 2 3 0.01 0.25
3:59 pm 15:59 Windy with Snow Likely 25 -3.9 20 -6.7 81 81 NNW 28 44 30.14 1021 2 3 0.01 0.25
4:27 pm 16:27 Windy with Snow Likely 25 -3.9 20 -6.7 81 81 NNW 24 39 30.15 1021 1 2 0.00 0.00
4:55 pm 16:55 Windy with Snow Likely 25 -4 19 -7 80 80 NNW 25 41 30.18 1022 2 3 0.00 0.00
4:59 pm 16:59 Windy with Snow Likely 25 -3.9 20 -6.7 81 81 NNW 25 41 30.17 1022 2 3 0.00 0.00
5:05 pm 17:05 Windy with Snow Likely 25 -3.9 20 -6.7 81 81 NNW 24 39 30.18 1022 1 2 0.00 0.00
5:29 pm 17:29 Windy with Snow Likely 24 -4.4 19 -7.2 81 81 NNW 24 39 30.18 1022 3 5 0.00 0.00
5:59 pm 17:59 Mostly Cloudy 25 -3.9 18 -7.8 75 75 NNW 23 37 30.19 1022 7 11 0.00 0.00
6:59 pm 18:59 Mostly Cloudy 23 -5 16 -8.9 74 74 NNW 22 35 30.24 1024 7 11 0.00 0.00
7:59 pm 19:59 Mostly Clear 22 -5.6 13 -10.6 68 68 NW 16 26 30.27 1025 9 14 0.00 0.00
8:59 pm 20:59 Mostly Clear 21 -6.1 12 -11.1 68 68 NW 14 22 30.29 1026 9 14 0.00 0.00
9:59 pm 21:59 Clear 22 -5.6 11 -11.7 63 63 NNW 21 33 30.31 1026 9 14 0.00 0.00
10:59 pm 22:59 Clear 20 -6.7 10 -12.2 65 65 NW 16 26 30.33 1027 9 14 0.00 0.00
11:59 pm 23:59 Clear 20 -6.7 9 -12.8 62 62 NW 17 28 30.34 1027 9 14 0.00 0.00

Powered by AerisWeather